sat.trackr.live / text

‹ back to catalog

STARLINK-5943

NORAD 56016 · 2023-042AG

PAYLOAD ACTIVE UNKNOWN

§ Identity

Operator
Country
US
Launch date
2023-03-24
Launch site
AFETR
Launch vehicle
Mass (kg)
RCS (m²)

Purposes: comms

External: N2YO · Heavens-Above · Gunter

§ Orbital elements

Epoch: 2026-09-20T19:32:59.389728Z

Period
94.27 min
Inclination
43.0035°
Eccentricity
0.0001532
Mean motion
15.27577963 rev/d
Perigee alt
482.0 km
Apogee alt
484.1 km
Semi-major
6,861.2 km
B*
1.2948e-5
RAAN
23.5738°
Arg perigee
263.8668°
Mean anomaly
96.2009°
Rev number
19,287

§ Raw data

STARLINK-59431 56016U 23042AG  26263.81457627  .00000094  00000+0  12948-4 0  99982 56016  43.0035  23.5738 0001532 263.8668  96.2009 15.27577963192878

JSON: /api/v1/satellites/56016 · /tle

For live sub-satellite position, see the globe view (requires WebGL).

§ Visibility from observer

Set your observer location to see the next 7 days of passes ≥ 10°. The values pass through the URL so the page stays shareable.

No JS? Fill the form by hand. The geolocation button needs JavaScript.